Las Cruces, NM

10:50 PM MDT on March 26, 2017 (GMT -0600)
Las Cruces International

Weather History for KLRU - May, 2013

Change the Weather History Date:

Saturday, May 25, 2013

  Actual Average Record
Temperature  
Mean Temperature 79 °F -  
Max Temperature 93 °F 87 °F 100 °F (2006)
Min Temperature 65 °F 58 °F 48 °F (2015)
Cooling Degree Days 14    
Growing Degree Days 29 (Base 50)    
Moisture  
Dew Point 33 °F    
Average Humidity 25    
Maximum Humidity 61    
Minimum Humidity 7    
Precipitation  
Precipitation 0.00 in - - ()
Sea Level Pressure  
Sea Level Pressure 30.04 in    
Wind  
Wind Speed 9 mph (SW)    
Max Wind Speed 20 mph    
Max Gust Speed 26 mph    
Visibility 10 miles    
Events      
Averages and records for this station are not official NWS values.
T = Trace of Precipitation, MM = Missing Value Source: NWS Daily Summary

Daily Weather History Graph

Daily Weather History Graph

Search for Another Location

Airport or City:

Trip Planner

Search our weather history database for the weather conditions in past years. The results will help you decide how hot, cold, wet, or windy it might be!

Date:

Astronomy

May. 25, 2013 Rise Set
Actual Time 6:04 AM MDT 8:05 PM MDT
Civil Twilight 5:36 AM MDT 8:33 PM MDT
Nautical Twilight 5:02 AM MDT 9:06 PM MDT
Astronomical Twilight 4:27 AM MDT 9:42 PM MDT
Moon 8:57 PM MDT (5/25) 6:32 AM MDT (5/25)
Length of Visible Light 14h 56m
Length of Day
14h 01m
Waxing Gibbous, 99% of the Moon is Illuminated
May 25
Waxing Gibbous
May 31
Last Quarter
Jun 8
New
Jun 16
First Quarter
Jun 23
Full

Hourly Weather History & Observations

Time (MDT) Temp. Dew Point Humidity Pressure Visibility Wind Dir Wind Speed Gust Speed Precip Events Conditions
12:15 AM 76.5 °F 36.9 °F 24% 30.04 in 10.0 mi SSW 8.1 mph - N/A   Clear
12:35 AM 74.5 °F 36.7 °F 25% 30.04 in 10.0 mi SSW 8.1 mph - N/A   Clear
12:55 AM 74.1 °F 37.0 °F 26% 30.04 in 10.0 mi SSW 8.1 mph - N/A   Clear
1:15 AM 71.6 °F 36.5 °F 28% 30.03 in 10.0 mi SW 8.1 mph - N/A   Clear
1:35 AM 69.1 °F 33.8 °F 27% 30.04 in 10.0 mi Calm Calm - N/A   Clear
1:55 AM 72.1 °F 40.6 °F 32% 30.06 in 10.0 mi ESE 8.1 mph 11.5 mph N/A   Clear
2:15 AM 70.9 °F 44.2 °F 38% 30.06 in 10.0 mi SE 9.2 mph - N/A   Clear
2:35 AM 71.1 °F 48.9 °F 45% 30.06 in 10.0 mi SE 9.2 mph - N/A   Clear
2:55 AM 71.1 °F 51.3 °F 49% 30.06 in 10.0 mi SE 9.2 mph - N/A   Clear
3:15 AM 70.3 °F 52.0 °F 52% 30.07 in 10.0 mi SE 8.1 mph - N/A   Clear
3:35 AM 69.6 °F 52.3 °F 54% 30.07 in 10.0 mi SSE 6.9 mph - N/A   Clear
3:55 AM 69.3 °F 52.3 °F 55% 30.07 in 10.0 mi SE 9.2 mph - N/A   Clear
4:15 AM 68.7 °F 51.8 °F 55% 30.07 in 10.0 mi SE 6.9 mph - N/A   Clear
4:35 AM 67.6 °F 51.8 °F 57% 30.07 in 10.0 mi South 5.8 mph - N/A   Clear
4:55 AM 67.1 °F 51.6 °F 57% 30.07 in 10.0 mi SSE 6.9 mph - N/A   Clear
5:15 AM 67.1 °F 51.6 °F 57% 30.07 in 10.0 mi SSE 8.1 mph - N/A   Clear
5:35 AM 65.7 °F 51.3 °F 60% 30.07 in 10.0 mi SSE 5.8 mph - N/A   Clear
5:55 AM 65.5 °F 51.4 °F 60% 30.07 in 10.0 mi SSE 6.9 mph - N/A   Clear
6:15 AM 65.5 °F 51.8 °F 61% 30.08 in 10.0 mi SSE 6.9 mph - N/A   Clear
6:35 AM 65.8 °F 52.0 °F 61% 30.09 in 10.0 mi SSE 6.9 mph - N/A   Clear
6:55 AM 67.1 °F 52.3 °F 59% 30.09 in 10.0 mi South 4.6 mph - N/A   Clear
7:15 AM 68.9 °F 52.7 °F 56% 30.09 in 10.0 mi SSE 5.8 mph - N/A   Clear
7:35 AM 70.2 °F 52.7 °F 54% 30.09 in 10.0 mi South 5.8 mph - N/A   Clear
7:55 AM 71.8 °F 52.9 °F 51% 30.11 in 10.0 mi SSE 5.8 mph - N/A   Clear
8:15 AM 72.5 °F 53.2 °F 51% 30.11 in 10.0 mi South 8.1 mph - N/A   Clear
8:35 AM 74.1 °F 52.9 °F 47% 30.11 in 10.0 mi South 8.1 mph - N/A   Clear
8:55 AM 75.4 °F 52.9 °F 45% 30.12 in 10.0 mi SSE 5.8 mph - N/A   Clear
9:15 AM 76.6 °F 51.3 °F 41% 30.12 in 10.0 mi SW 6.9 mph - N/A   Clear
9:35 AM 77.0 °F 46.8 °F 34% 30.11 in 10.0 mi South 3.5 mph - N/A   Clear
9:55 AM 79.0 °F 44.1 °F 29% 30.11 in 10.0 mi WSW 4.6 mph - N/A   Clear
10:15 AM 80.1 °F 42.1 °F 26% 30.11 in 10.0 mi SSW 5.8 mph - N/A   Clear
10:35 AM 82.2 °F 40.1 °F 22% 30.11 in 10.0 mi SW 6.9 mph - N/A   Clear
10:55 AM 83.3 °F 29.7 °F 14% 30.10 in 10.0 mi West 3.5 mph - N/A   Clear
11:15 AM 85.8 °F 26.6 °F 12% 30.10 in 10.0 mi WSW 8.1 mph - N/A   Clear
11:35 AM 85.6 °F 21.2 °F 9% 30.10 in 10.0 mi SSW 5.8 mph - N/A   Clear
11:55 AM 87.1 °F 19.8 °F 8% 30.09 in 10.0 mi SW 9.2 mph 17.3 mph N/A   Clear
12:15 PM 88.2 °F 20.5 °F 8% 30.09 in 10.0 mi SW 8.1 mph 16.1 mph N/A   Clear
12:35 PM 89.2 °F 21.4 °F 8% 30.08 in 10.0 mi SW 9.2 mph 16.1 mph N/A   Clear
12:55 PM 89.2 °F 22.3 °F 9% 30.08 in 10.0 mi WSW 13.8 mph 17.3 mph N/A   Clear
1:15 PM 90.5 °F 24.4 °F 9% 30.07 in 10.0 mi SW 9.2 mph 18.4 mph N/A   Clear
1:35 PM 90.7 °F 24.8 °F 9% 30.07 in 10.0 mi SW 11.5 mph 20.7 mph N/A   Clear
1:55 PM 91.0 °F 24.1 °F 9% 30.05 in 10.0 mi SW 11.5 mph - N/A   Clear
2:15 PM 93.0 °F 25.7 °F 9% 30.05 in 10.0 mi SSW 15.0 mph 20.7 mph N/A   Clear
2:35 PM 92.3 °F 25.5 °F 9% 30.04 in 10.0 mi SSW 16.1 mph 20.7 mph N/A   Clear
2:55 PM 93.7 °F 25.7 °F 9% 30.04 in 10.0 mi SSW 13.8 mph 26.5 mph N/A   Clear
3:15 PM 93.4 °F 25.9 °F 9% 30.03 in 10.0 mi SW 12.7 mph 23.0 mph N/A   Clear
3:35 PM 93.4 °F 24.8 °F 8% 30.02 in 10.0 mi WSW 19.6 mph 25.3 mph N/A   Clear
3:55 PM 93.0 °F 23.4 °F 8% 30.01 in 10.0 mi SW 18.4 mph 24.2 mph N/A   Clear
4:15 PM 93.6 °F 21.6 °F 7% 30.00 in 10.0 mi West 13.8 mph 23.0 mph N/A   Clear
4:35 PM 93.4 °F 20.8 °F 7% 29.99 in 10.0 mi West 11.5 mph 25.3 mph N/A   Clear
4:55 PM 93.6 °F 20.8 °F 7% 29.99 in 10.0 mi WSW 17.3 mph 24.2 mph N/A   Clear
5:15 PM 93.2 °F 20.3 °F 7% 29.99 in 10.0 mi West 17.3 mph 21.9 mph N/A   Clear
5:35 PM 93.2 °F 20.8 °F 7% 29.98 in 10.0 mi SSW 10.4 mph 21.9 mph N/A   Clear
5:55 PM 93.0 °F 19.6 °F 7% 29.97 in 10.0 mi WSW 12.7 mph 24.2 mph N/A   Clear
6:15 PM 92.5 °F 19.4 °F 7% 29.96 in 10.0 mi WSW 16.1 mph 20.7 mph N/A   Clear
6:35 PM 91.9 °F 19.4 °F 7% 29.96 in 10.0 mi WSW 11.5 mph - N/A   Clear
6:55 PM 91.4 °F 19.2 °F 7% 29.95 in 10.0 mi WSW 11.5 mph 18.4 mph N/A   Clear
7:15 PM 90.9 °F 19.4 °F 7% 29.95 in 10.0 mi SW 16.1 mph - N/A   Clear
7:35 PM 90.0 °F 19.9 °F 8% 29.96 in 10.0 mi WSW 12.7 mph - N/A   Clear
7:55 PM 88.7 °F 21.6 °F 9% 29.97 in 10.0 mi West 15.0 mph - N/A   Clear
8:15 PM 86.9 °F 22.1 °F 9% 29.98 in 10.0 mi West 11.5 mph - N/A   Clear
8:35 PM 85.6 °F 20.8 °F 9% 29.98 in 10.0 mi West 12.7 mph - N/A   Clear
8:55 PM 84.4 °F 20.5 °F 9% 29.98 in 10.0 mi West 13.8 mph - N/A   Clear
9:15 PM 83.5 °F 21.0 °F 10% 29.98 in 10.0 mi West 18.4 mph 23.0 mph N/A   Clear
9:35 PM 82.8 °F 21.7 °F 11% 29.99 in 10.0 mi West 15.0 mph 20.7 mph N/A   Clear
9:55 PM 82.0 °F 22.1 °F 11% 30.00 in 10.0 mi West 16.1 mph - N/A   Clear
10:15 PM 81.1 °F 21.2 °F 11% 30.01 in 10.0 mi West 17.3 mph 23.0 mph N/A   Clear
10:35 PM 79.7 °F 20.3 °F 11% 30.02 in 10.0 mi West 12.7 mph - N/A   Clear
10:55 PM 77.9 °F 19.9 °F 11% 30.02 in 10.0 mi West 12.7 mph - N/A   Clear
11:15 PM 76.6 °F 18.9 °F 11% 30.02 in 10.0 mi West 12.7 mph - N/A   Clear
11:35 PM 77.4 °F 18.5 °F 11% 30.02 in 10.0 mi West 13.8 mph - N/A   Clear
11:55 PM 76.3 °F 17.8 °F 11% 30.03 in 10.0 mi West 11.5 mph - N/A   Clear